Showing default

ICEYE-X76, 68502

Orbit data source: Space-Track

ICEYE-X76, 68502 is a payload satellite owned by ICEYE (PL) in SSO that was launched on Mon, 30 Mar 2026 UTC via an FALCON 9 launch vehicle from the Air Force Western Test Range (AFWTR). Payload-class satellites include a variety of spacecraft equipped with specific instruments for various scientific and technological missions. These include communications satellites like Starlink; space stations such as the ISS; scientific satellites like the Hubble; Earth observation satellites from companies like Planet Labs, Umbra, and HawkEye 360; GPS; miniature CubeSats for education and research; and military/defense satellites.

Loading next visibility...
Identifier
68502, 2026-067CQ
Orbit
SSO
Country
Flag of PLPL / POL
Related business
Manufacturer
ICEYE
Mission
Operational spacecraft
Bus & Motor
ICEYE, Unknown motor
Mass
120 kg wet, 120 kg dry
Launch date (UTC)
2026-03-30 (3 months ago)
Launch vehicle
FALCON 9
Launch site
Air Force Western Test Range (AFWTR)
Object type
Payload
Rocket body
Debris
Shape & HBR
Unknown shape, 0.6 m
Radar Cross Section
Medium (>0.1 m² and <1 m²)

Expand to show TLE details & history
Last TLE update: 2 days ago

TLE from 2 days ago
0 ICEYE-X76
1 68502U 26067CQ  26171.34340170  .00000701  00000-0  75236-4 0  9996
2 68502  97.7626 129.5543 0002706  39.1689 320.9725 14.91703765 12194
Epoch: 2026-06-20T08:14Z
TLE epoch observation values (Epoch: 2026-06-20T08:14:29.906Z)
Latitude
-0.00006°
Longitude
97.37032°
Altitude
594.199 km
Speed
7.564 km/s
True Right ascension
08h 38m 13s
True Declination
0° 00' 00"
Sunlit
Object was in daylight at epoch
Visualization orbit readout
Latitude
Unknown
Longitude
Unknown
Altitude
Unknown
Speed
Unknown
Apparent Right ascension
Unknown
Apparent Declination
Unknown
Sunlit
N/A
Visualization observer readout
Local Sidereal Time
16:50:24
Azimuth
Unknown
Elevation
Unknown
Doppler factor
Unknown
Orbital elements
Apogee altitude
591.527 km
Perigee altitude
587.756 km
Semi-major axis
6,967.779 km
Eccentricity
0.00027
Inclination
97.7626°
RAAN
129.5543°
Arg. of periapsis
39.1689°
True anomaly
320.95297°
Mean anomaly
320.9725°
Eccentric anomaly
320.96274°
Mean motion
3.73166 °/min
Orbital period
96.47 mins
BSTAR
0.000075236
Loading maneuver chart data...
Computing Atmospheric mass density...
Loading historical data...
Loading historical data...
Loading historical data...
Loading historical data...
Loading historical data...
Loading historical data...
Loading historical data...

Documentation

Showing up to 5 results
|